Laconia, NH

1:01 AM EST on November 22, 2019 (GMT -0500)
Laconia Municipal

Weather History for KLCI - October, 2019

Change the Weather History Date:

Sunday, October 13, 2019

  Actual Average Record
Temperature  
Mean Temperature 55 °F -  
Max Temperature 64 °F 61 °F 78 °F (1995)
Min Temperature 44 °F 39 °F 25 °F (1987)
Degree Days  
Heating Degree Days 10    
Growing Degree Days 5 (Base 50)    
Moisture  
Dew Point 47 °F    
Average Humidity 79    
Maximum Humidity 100    
Minimum Humidity 43    
Precipitation  
Precipitation 0.00 in - - ()
Sea Level Pressure  
Sea Level Pressure 30.02 in    
Wind  
Wind Speed 4 mph ()    
Max Wind Speed 10 mph    
Max Gust Speed -    
Visibility 10.0 miles    
Events      
Averages and records for this station are not official NWS values.
T = Trace of Precipitation, MM = Missing Value Source: Averaged Metar Reports

Daily Weather History Graph

Daily Weather History Graph

Search for Another Location

Airport or City:

Astronomy

Oct. 13, 2019 Rise Set
Actual Time 6:57 AM EDT 6:06 PM EDT
Civil Twilight 6:28 AM EDT 6:34 PM EDT
Nautical Twilight 5:55 AM EDT 7:08 PM EDT
Astronomical Twilight 5:21 AM EDT 7:41 PM EDT
Moon 6:28 PM EDT (10/13) 6:25 AM EDT (10/13)
Length of Visible Light 12h 06m
Length of Day
11h 09m
Full, 100% of the Moon is Illuminated
Oct 13
Full
Oct 13
Full
Oct 21
Last Quarter
Oct 27
New
Nov 4
First Quarter

Hourly Weather History & Observations

Time (EDT) Temp. Dew Point Humidity Pressure Visibility Wind Dir Wind Speed Gust Speed Precip Events Conditions
12:46 AM 51.8 °F 51.8 °F 100% 29.96 in 10.0 mi WSW 3.5 mph - N/A   Overcast
12:56 AM 52.0 °F 51.1 °F 97% 29.97 in 10.0 mi WSW 3.5 mph - N/A   Overcast
1:56 AM 52.0 °F 50.0 °F 93% 29.97 in 10.0 mi West 4.6 mph - N/A   Overcast
2:56 AM 51.1 °F 50.0 °F 96% 29.96 in 10.0 mi WSW 5.8 mph - N/A   Scattered Clouds
3:56 AM 50.0 °F 48.9 °F 96% 29.97 in 10.0 mi West 3.5 mph - N/A   Scattered Clouds
4:56 AM 48.9 °F 48.9 °F 100% 29.98 in 10.0 mi WSW 4.6 mph - N/A   Mostly Cloudy
5:56 AM 48.0 °F 48.0 °F 100% 29.99 in 10.0 mi Calm Calm - N/A   Mostly Cloudy
6:56 AM 48.0 °F 46.9 °F 96% 30.01 in 10.0 mi West 3.5 mph - N/A   Clear
7:56 AM 53.1 °F 50.0 °F 89% 30.04 in 10.0 mi WSW 8.1 mph - N/A   Mostly Cloudy
8:56 AM 55.9 °F 48.9 °F 77% 30.05 in 10.0 mi West 5.8 mph - N/A   Mostly Cloudy
9:56 AM 57.9 °F 46.9 °F 67% 30.06 in 10.0 mi West 10.4 mph - N/A   Clear
10:56 AM 57.9 °F 46.9 °F 67% 30.07 in 10.0 mi Variable 5.8 mph - N/A   Clear
11:56 AM 60.1 °F 46.9 °F 62% 30.06 in 10.0 mi SSW 6.9 mph - N/A   Clear
12:56 PM 61.0 °F 46.0 °F 58% 30.06 in 10.0 mi SW 6.9 mph - N/A   Clear
1:56 PM 62.1 °F 46.0 °F 56% 30.04 in 10.0 mi West 5.8 mph - N/A   Clear
2:56 PM 64.0 °F 44.1 °F 48% 30.03 in 10.0 mi South 8.1 mph - N/A   Clear
3:56 PM 63.0 °F 42.1 °F 46% 30.02 in 10.0 mi SW 6.9 mph - N/A   Clear
4:56 PM 64.0 °F 41.0 °F 43% 30.02 in 10.0 mi SW 5.8 mph - N/A   Clear
5:56 PM 55.9 °F 45.0 °F 67% 30.03 in 10.0 mi North - - N/A   Clear
6:56 PM 52.0 °F 45.0 °F 77% 30.04 in 10.0 mi Calm Calm - N/A   Clear
7:56 PM 51.1 °F 44.1 °F 77% 30.04 in 10.0 mi Calm Calm - N/A   Clear
8:56 PM 48.0 °F 44.1 °F 86% 30.04 in 10.0 mi Calm Calm - N/A   Clear
9:56 PM 48.0 °F 45.0 °F 89% 30.05 in 10.0 mi Calm Calm - N/A   Clear
10:56 PM 46.0 °F 44.1 °F 93% 30.04 in 10.0 mi Calm Calm - N/A   Clear
11:56 PM 44.1 °F 43.0 °F 96% 30.03 in 10.0 mi Calm Calm - N/A   Clear